Temp
-9 -10 -11 -10 -10 -10 -10 -10 -11 -9 -9 -8 -10 -10 -9 -10 -10 -11 -11 -11 -12 -12 -12 -13 -13 -13 -13 -13 -14 -14 -14 -14 -14 -14 -15 -15 -15 -15 -14 -14 -14 -14 -14 -14
-11 -11 -10 -10 -10 -10 -10 -10 -9 -10 -9 -9 -11 -11 -11 -11 -10 -10 -12 -12 -12 -12 -13 -13 -14 -13 -13 -13 -14 -14 -15 -15 -15 -15 -15 -15 -15 -15 -14 -14 -14 -14 -14 -14
-10 -10 -11 -10 -10 -11 -11 -10 -10 -10 -11 -11 -11 -10 -8 -10 -11 -12 -12 -13 -12 -12 -12 -14 -13 -13 -14 -14 -14 -15 -15 -15 -15 -15 -15 -15 -15 -15 -15 -15 -15 -15 -15 -14
-10 -11 -10 -10 -11 -10 -10 -10 -10 -10 -10 -11 -11 -10 -10 -11 -11 -13 -13 -12 -12 -12 -13 -13 -14 -14 -14 -14 -14 -14 -14 -14 -16 -16 -15 -15 -15 -15 -15 -15 -15 -15 -15 -16
-10 -10 -11 -10 -10 -10 -11 -11 -10 -11 -11 -11 -11 -11 -11 -10 -11 -13 -13 -13 -13 -13 -13 -14 -14 -14 -15 -15 -15 -15 -16 -16 -16 -16 -16 -16 -16 -16 -16 -16 -16 -16 -16 -17
-11 -10 -10 -10 -10 -11 -11 -11 -11 -11 -11 -11 -12 -11 -11 -11 -12 -13 -13 -13 -13 -13 -13 -14 -14 -15 -15 -15 -16 -17 -17 -16 -17 -17 -18 -18 -18 -17 -17 -17 -17 -17 -17 -17
-11 -10 -11 -11 -11 -11 -10 -11 -11 -11 -11 -11 -12 -12 -11 -11 -12 -13 -12 -13 -13 -14 -14 -14 -15 -15 -16 -16 -17 -17 -17 -17 -17 -18 -18 -18 -18 -18 -18 -18 -18 -18 -18 -18
-10 -10 -10 -11 -11 -11 -10 -11 -13 -12 -11 -11 -12 -12 -12 -12 -13 -12 -13 -13 -13 -14 -15 -15 -16 -16 -17 -17 -17 -17 -17 -17 -18 -18 -18 -18 -19 -19 -19 -19 -19 -19 -19 -19
-10 -11 -11 -11 -10 -11 -10 -11 -11 -11 -13 -12 -12 -12 -13 -12 -13 -13 -13 -14 -14 -14 -15 -16 -16 -17 -17 -17 -17 -17 -17 -18 -18 -18 -19 -19 -19 -19 -19 -19 -19 -19 -20 -20
-11 -11 -11 -11 -11 -11 -11 -12 -11 -13 -13 -13 -12 -12 -13 -13 -13 -13 -14 -13 -14 -15 -16 -16 -17 -17 -17 -17 -17 -17 -18 -18 -18 -19 -19 -19 -19 -19 -19 -19 -19 -19 -20 -20
-10 -11 -11 -12 -12 -11 -12 -12 -12 -12 -13 -13 -13 -13 -13 -13 -14 -14 -14 -14 -15 -16 -16 -17 -17 -17 -17 -17 -18 -18 -18 -18 -19 -19 -19 -19 -19 -19 -19 -19 -19 -19 -20 -20
-10 -11 -11 -12 -12 -12 -12 -12 -12 -12 -13 -14 -14 -14 -13 -14 -13 -13 -13 -14 -15 -16 -17 -17 -17 -17 -17 -18 -18 -18 -18 -18 -18 -18 -18 -18 -19 -19 -19 -19 -19 -19 -20 -20
-10 -11 -11 -13 -13 -12 -12 -12 -13 -13 -13 -14 -14 -13 -13 -14 -14 -14 -14 -15 -15 -16 -17 -18 -17 -17 -18 -18 -18 -18 -17 -18 -18 -18 -18 -18 -18 -19 -19 -19 -19 -19 -20 -20
-11 -11 -11 -12 -12 -12 -14 -13 -13 -13 -13 -14 -13 -13 -14 -14 -15 -14 -15 -15 -16 -16 -17 -18 -18 -17 -17 -18 -18 -17 -17 -18 -18 -18 -18 -18 -19 -19 -19 -19 -19 -19 -19 -20
-11 -11 -11 -11 -12 -13 -13 -13 -13 -13 -13 -14 -14 -14 -14 -14 -15 -15 -15 -16 -16 -16 -16 -17 -17 -17 -17 -17 -17 -17 -17 -18 -18 -18 -18 -19 -19 -19 -19 -19 -19 -19 -19 -19
-10 -11 -12 -12 -13 -13 -14 -13 -13 -13 -13 -14 -14 -14 -14 -14 -15 -15 -15 -16 -16 -17 -16 -17 -17 -17 -17 -17 -17 -17 -17 -18 -18 -18 -18 -19 -18 -19 -19 -19 -19 -19 -19 -19
-12 -12 -12 -13 -13 -13 -14 -13 -13 -14 -14 -14 -14 -14 -15 -15 -15 -15 -15 -16 -16 -16 -17 -16 -17 -17 -17 -17 -17 -17 -18 -18 -18 -18 -18 -18 -18 -18 -18 -18 -19 -19 -19 -19
-12 -12 -12 -14 -14 -14 -14 -14 -14 -14 -14 -14 -14 -15 -15 -15 -15 -15 -16 -16 -16 -17 -17 -17 -17 -17 -17 -17 -17 -17 -18 -18 -18 -18 -17 -18 -18 -18 -18 -18 -18 -18 -18 -18
-12 -12 -13 -14 -15 -14 -14 -14 -14 -14 -13 -14 -14 -14 -15 -15 -15 -15 -15 -16 -16 -17 -17 -17 -17 -17 -17 -17 -17 -17 -17 -17 -17 -17 -17 -18 -18 -18 -18 -18 -18 -18 -18 -18
-13 -13 -14 -14 -14 -14 -14 -14 -14 -14 -14 -14 -14 -15 -15 -15 -15 -15 -16 -16 -16 -17 -17 -17 -17 -17 -17 -17 -17 -17 -17 -17 -17 -17 -17 -17 -18 -18 -18 -17 -18 -18 -17 -17
-14 -14 -14 -14 -14 -13 -14 -14 -14 -14 -14 -14 -15 -15 -15 -15 -15 -16 -16 -16 -17 -17 -17 -17 -17 -17 -17 -17 -17 -17 -17 -17 -17 -17 -17 -17 -17 -17 -17 -17 -17 -17 -17 -16
-14 -14 -13 -14 -14 -14 -14 -14 -14 -14 -14 -15 -15 -15 -15 -15 -15 -16 -16 -17 -17 -18 -18 -17 -17 -17 -17 -17 -17 -17 -17 -17 -17 -17 -17 -17 -17 -17 -17 -17 -17 -16 -16 -16
-13 -14 -14 -14 -14 -14 -14 -14 -14 -14 -15 -15 -15 -15 -15 -15 -15 -16 -17 -17 -18 -18 -18 -18 -17 -17 -17 -17 -17 -17 -17 -17 -17 -17 -17 -16 -16 -16 -16 -16 -16 -16 -16 -16
-14 -13 -14 -14 -14 -14 -14 -14 -14 -15 -15 -15 -15 -15 -15 -15 -15 -16 -17 -17 -18 -18 -18 -18 -17 -17 -17 -17 -17 -17 -17 -17 -17 -17 -16 -16 -16 -16 -16 -16 -16 -16 -16 -16
-14 -14 -14 -14 -14 -14 -14 -14 -15 -15 -15 -15 -15 -15 -15 -16 -15 -16 -17 -17 -17 -17 -17 -17 -17 -17 -17 -17 -17 -17 -17 -17 -17 -17 -16 -16 -16 -16 -16 -15 -16 -15 -16 -16
-14 -14 -14 -14 -14 -14 -15 -15 -15 -15 -15 -15 -15 -16 -16 -16 -16 -16 -16 -17 -17 -17 -17 -17 -17 -17 -17 -17 -17 -17 -17 -17 -17 -17 -16 -16 -16 -15 -15 -15 -15 -16 -15 -15
Height
5902 5901 5906 5905 5903 5906 5905 5895 5892 5891 5889 5890 5881 5866 5862 5855 5854 5854 5851 5849 5847 5842 5838 5834 5831 5826 5822 5817 5812 5808 5804 5800 5795 5790 5788 5785 5778 5773 5767 5766 5764 5762 5759 5757
5908 5906 5906 5906 5905 5904 5904 5899 5889 5888 5886 5879 5878 5871 5864 5842 5849 5852 5849 5845 5842 5837 5830 5826 5825 5821 5817 5810 5806 5802 5796 5791 5789 5783 5777 5774 5767 5762 5757 5754 5751 5746 5745 5743
5905 5904 5903 5904 5905 5902 5901 5895 5892 5888 5884 5883 5878 5870 5830 5841 5836 5845 5843 5841 5838 5831 5818 5819 5817 5811 5806 5802 5797 5792 5787 5782 5776 5771 5764 5759 5754 5748 5745 5740 5737 5733 5730 5728
5909 5904 5903 5904 5902 5898 5898 5891 5889 5886 5884 5881 5872 5865 5846 5848 5838 5838 5840 5836 5831 5828 5824 5816 5809 5804 5800 5794 5787 5782 5778 5771 5765 5759 5754 5746 5742 5737 5732 5729 5724 5720 5717 5713
5907 5903 5903 5900 5896 5896 5893 5889 5885 5883 5880 5869 5871 5862 5853 5848 5834 5835 5835 5831 5827 5822 5818 5812 5806 5799 5793 5786 5780 5773 5765 5757 5750 5744 5739 5734 5729 5724 5719 5714 5709 5705 5702 5699
5901 5901 5899 5896 5895 5890 5887 5882 5881 5880 5873 5873 5867 5864 5855 5844 5839 5838 5834 5830 5824 5818 5812 5807 5800 5793 5787 5780 5771 5763 5755 5748 5741 5734 5726 5720 5716 5711 5705 5701 5696 5692 5689 5686
5899 5891 5884 5890 5890 5887 5884 5879 5876 5874 5873 5872 5868 5853 5847 5845 5843 5841 5834 5829 5822 5815 5807 5801 5794 5785 5779 5772 5763 5755 5748 5741 5733 5725 5717 5710 5705 5699 5693 5688 5684 5680 5678 5674
5893 5888 5886 5884 5884 5882 5880 5877 5873 5866 5865 5866 5860 5851 5847 5844 5842 5838 5833 5825 5818 5811 5800 5792 5786 5778 5772 5762 5755 5748 5740 5733 5725 5717 5710 5702 5696 5690 5684 5678 5673 5669 5666 5664
5893 5889 5884 5880 5882 5879 5876 5872 5868 5863 5863 5861 5851 5849 5843 5842 5838 5833 5826 5819 5812 5803 5795 5786 5778 5772 5764 5756 5749 5743 5735 5727 5718 5710 5703 5695 5687 5681 5673 5667 5662 5658 5655 5654
5889 5887 5886 5883 5876 5873 5871 5867 5864 5861 5859 5858 5851 5844 5841 5838 5835 5829 5822 5814 5807 5797 5787 5779 5773 5765 5757 5750 5742 5736 5729 5722 5714 5705 5697 5688 5680 5673 5667 5662 5658 5654 5651 5649
5882 5883 5883 5879 5871 5871 5867 5863 5860 5858 5857 5855 5849 5843 5842 5838 5833 5826 5819 5812 5801 5793 5784 5775 5768 5762 5754 5747 5740 5733 5727 5720 5711 5702 5694 5685 5678 5671 5665 5661 5657 5653 5650 5647
5877 5877 5876 5874 5867 5866 5862 5860 5857 5856 5856 5853 5849 5846 5840 5836 5829 5823 5817 5806 5796 5788 5780 5771 5763 5758 5752 5745 5738 5733 5728 5720 5712 5703 5695 5687 5679 5673 5667 5662 5658 5655 5652 5649
5874 5871 5871 5872 5862 5862 5858 5857 5856 5855 5853 5849 5847 5842 5837 5831 5824 5818 5811 5801 5791 5784 5775 5767 5761 5756 5750 5744 5739 5734 5729 5723 5715 5706 5700 5692 5685 5678 5672 5667 5662 5658 5655 5652
5869 5868 5866 5865 5860 5859 5856 5854 5854 5853 5851 5848 5844 5838 5833 5828 5821 5813 5805 5797 5788 5780 5772 5764 5758 5754 5749 5745 5740 5735 5730 5725 5718 5712 5705 5698 5692 5686 5679 5673 5668 5664 5660 5656
5866 5864 5862 5859 5857 5855 5854 5853 5852 5850 5848 5846 5841 5837 5830 5826 5819 5811 5802 5793 5784 5776 5769 5761 5757 5753 5749 5746 5742 5737 5733 5727 5722 5716 5710 5704 5698 5693 5687 5682 5677 5672 5668 5665
5861 5859 5857 5855 5853 5852 5852 5851 5850 5848 5845 5843 5837 5832 5825 5819 5815 5808 5798 5788 5782 5774 5768 5762 5757 5753 5750 5747 5743 5739 5735 5730 5724 5720 5715 5709 5704 5699 5694 5689 5685 5681 5678 5674
5857 5856 5854 5852 5850 5849 5850 5849 5848 5846 5842 5839 5834 5829 5822 5816 5810 5803 5794 5786 5778 5771 5766 5762 5757 5754 5751 5748 5745 5741 5737 5732 5728 5724 5720 5714 5710 5705 5701 5697 5693 5689 5686 5683
5852 5851 5850 5849 5848 5849 5848 5848 5846 5843 5839 5836 5831 5826 5818 5810 5806 5799 5791 5783 5774 5767 5763 5760 5756 5754 5751 5749 5746 5743 5739 5735 5731 5727 5724 5719 5715 5711 5707 5703 5700 5697 5694 5692
5849 5848 5847 5847 5848 5848 5847 5847 5844 5841 5837 5833 5828 5822 5816 5808 5799 5794 5785 5777 5770 5764 5760 5758 5755 5754 5752 5750 5747 5745 5741 5738 5735 5731 5728 5724 5720 5717 5714 5711 5708 5705 5703 5700
5845 5844 5845 5845 5847 5846 5846 5844 5841 5838 5834 5830 5824 5818 5812 5806 5796 5789 5781 5774 5767 5761 5757 5756 5754 5754 5753 5751 5748 5746 5743 5741 5738 5735 5732 5729 5726 5723 5720 5718 5715 5713 5711 5709
5843 5842 5844 5844 5844 5845 5844 5842 5839 5836 5834 5826 5820 5814 5809 5802 5794 5785 5776 5769 5762 5757 5754 5753 5753 5753 5753 5752 5750 5748 5746 5744 5741 5739 5736 5734 5731 5729 5726 5724 5722 5720 5718 5716
5838 5842 5842 5843 5844 5845 5843 5840 5838 5834 5828 5823 5818 5812 5805 5798 5790 5782 5773 5766 5759 5753 5750 5751 5752 5753 5754 5753 5752 5751 5749 5747 5744 5742 5740 5739 5736 5735 5732 5731 5730 5728 5727 5726
5842 5842 5844 5844 5844 5842 5840 5837 5834 5830 5825 5820 5815 5809 5802 5796 5788 5780 5772 5763 5755 5750 5749 5751 5752 5754 5755 5754 5753 5752 5751 5749 5748 5746 5745 5743 5741 5740 5739 5738 5737 5736 5735 5734
5841 5842 5844 5844 5842 5840 5838 5835 5832 5827 5822 5817 5812 5807 5800 5794 5786 5778 5771 5764 5757 5753 5752 5753 5754 5756 5756 5756 5755 5754 5753 5752 5751 5750 5748 5747 5745 5745 5745 5744 5744 5743 5742 5741
5842 5842 5841 5842 5840 5838 5836 5832 5828 5824 5819 5815 5809 5804 5798 5792 5785 5778 5772 5765 5760 5757 5755 5756 5757 5757 5757 5757 5757 5757 5756 5755 5753 5752 5751 5750 5750 5750 5750 5750 5749 5749 5748 5748
5840 5840 5841 5840 5838 5835 5832 5828 5825 5821 5817 5812 5806 5801 5797 5791 5785 5779 5772 5767 5763 5760 5758 5758 5759 5759 5759 5759 5759 5758 5757 5756 5756 5754 5754 5753 5754 5754 5754 5754 5754 5754 5753 5753
Wind_Speed
11 11 4 13 7 7 12 26 23 27 28 23 30 46 40 34 29 31 29 29 32 34 32 35 33 32 36 38 38 40 39 44 38 40 38 39 42 45 46 47 48 49 49 49
5 7 4 8 10 15 11 23 27 23 33 36 35 31 41 40 33 24 30 34 32 34 36 30 28 31 33 36 34 41 44 39 36 41 46 47 47 49 50 52 52 52 51 50
15 4 17 14 10 13 15 18 21 28 25 27 33 27 23 6 10 20 36 32 36 31 19 36 40 39 37 38 46 46 44 40 52 44 49 50 50 50 50 51 50 50 51 52
5 15 14 10 11 21 13 21 24 26 25 22 32 39 43 44 22 34 40 34 35 34 35 39 40 40 42 46 49 51 52 50 46 45 48 52 52 53 51 51 53 53 52 50
15 16 3 11 22 22 24 22 22 26 24 39 32 39 35 18 25 43 43 43 40 41 40 42 45 46 47 48 51 53 54 55 58 58 52 46 47 47 49 50 50 50 49 47
9 16 21 20 19 20 21 21 24 22 21 19 26 28 37 25 41 38 34 41 43 44 45 46 46 47 46 51 50 47 48 52 52 49 47 45 44 43 43 43 45 45 44 42
16 17 16 12 16 24 25 26 23 22 10 20 22 34 29 32 37 34 39 40 44 45 46 45 45 46 53 51 43 45 47 49 48 46 43 42 41 40 39 39 39 39 37 36
12 25 22 17 26 30 27 25 18 31 26 13 20 29 32 40 32 35 37 39 45 46 48 48 48 51 50 45 45 47 49 47 43 42 40 38 35 35 38 39 39 39 36 34
14 20 24 30 25 29 24 31 28 20 14 17 23 23 22 32 32 35 38 43 47 49 50 49 49 46 43 47 46 43 40 40 39 36 35 37 39 40 38 33 30 27 26 25
15 17 17 22 30 22 32 32 20 14 6 7 22 20 28 28 35 38 41 47 47 48 48 45 41 42 43 38 34 34 35 34 35 37 37 36 32 27 21 20 19 17 15 14
19 13 12 17 29 26 31 21 15 10 2 12 17 25 27 27 32 37 41 44 49 44 42 41 41 35 35 37 34 31 29 32 36 33 29 27 23 22 21 19 18 16 13 12
19 17 16 16 28 25 25 21 10 7 8 10 4 21 25 29 34 37 40 44 45 42 40 38 36 32 34 32 27 24 26 30 31 28 28 27 27 24 21 18 17 17 14 13
18 21 17 11 28 24 24 17 9 9 13 16 17 26 28 31 36 39 42 44 44 41 38 33 28 27 28 24 21 24 20 26 28 28 25 25 25 26 25 23 20 18 17 17
19 19 20 19 23 19 19 11 9 12 12 13 21 26 30 31 35 40 42 42 41 36 35 31 24 26 23 18 20 18 20 22 26 27 28 26 26 27 30 29 25 25 23 20
17 19 20 18 14 14 11 8 10 13 14 15 23 26 29 31 32 37 41 39 39 35 35 26 19 19 14 15 16 17 19 20 22 24 26 24 24 26 27 29 33 31 27 26
17 19 17 16 10 4 7 8 11 15 18 20 25 29 32 35 34 36 39 40 36 31 29 22 17 13 11 13 16 16 19 20 20 21 21 22 25 26 28 27 27 28 30 32
21 17 16 11 10 4 8 10 13 16 22 22 25 29 31 34 36 38 38 38 35 28 22 18 15 9 10 12 16 17 19 19 18 18 18 20 23 24 24 25 27 26 25 26
18 14 13 8 9 7 11 10 13 17 21 22 27 29 33 37 36 37 37 36 33 25 20 15 11 7 9 12 16 16 17 17 18 18 17 20 22 23 24 26 25 27 29 29
14 11 4 6 4 9 10 11 15 18 22 23 28 31 32 36 40 40 42 38 30 25 17 11 7 5 7 11 15 14 15 14 17 17 18 20 21 23 25 27 27 26 25 26
12 8 9 7 7 11 11 12 17 20 24 26 30 32 33 33 38 40 40 36 25 23 15 8 3 2 5 9 13 13 11 12 15 17 18 20 22 22 22 23 24 25 25 26
5 3 6 7 11 7 11 14 19 21 24 29 31 33 32 33 36 39 39 33 27 22 12 5 2 2 3 8 11 10 8 11 13 15 16 18 20 19 20 22 23 23 25 27
9 4 7 10 9 10 12 16 18 21 26 28 30 31 31 33 36 38 37 32 28 20 8 2 4 4 2 6 9 7 8 11 12 14 15 15 16 17 21 22 23 24 26 28
17 12 9 8 9 12 14 17 20 23 26 28 30 29 30 31 35 37 34 31 27 13 4 2 6 5 3 4 6 6 9 10 11 12 12 12 15 17 21 21 23 25 27 26
9 7 6 8 10 13 15 17 20 24 26 28 28 28 28 31 33 35 33 28 21 12 6 4 6 5 3 4 5 7 8 10 10 10 10 14 17 17 19 20 22 22 23 22
2 5 8 11 15 15 15 19 23 24 26 26 28 28 27 29 31 32 30 23 16 11 8 7 5 3 2 3 5 7 7 8 8 8 10 13 15 16 18 19 19 19 19 20
6 9 11 14 16 18 20 22 23 24 26 27 26 24 25 27 28 29 28 21 13 8 9 7 4 1 1 3 5 5 6 7 7 6 9 12 14 15 17 16 17 16 17 17
Wind_Direction
39 53 314 257 352 315 328 316 305 300 321 306 319 313 315 291 297 301 304 307 312 312 309 303 305 308 306 303 301 299 292 299 296 289 287 292 293 291 290 291 289 287 284 281
287 233 40 243 263 304 298 276 303 317 312 326 332 304 304 300 292 300 315 322 321 319 307 304 311 312 305 303 297 302 299 300 312 300 297 294 293 292 292 289 288 287 286 284
295 264 235 268 298 275 305 299 294 301 317 327 304 289 235 276 311 339 344 335 326 330 302 323 317 317 314 306 306 307 301 292 311 303 296 296 296 295 294 292 290 287 286 285
246 267 277 310 279 279 297 295 311 313 322 309 308 313 320 324 274 347 339 337 334 328 317 319 320 315 310 309 305 300 310 308 308 300 296 295 294 293 292 290 290 290 288 287
274 283 294 263 248 296 293 302 315 328 321 295 315 320 318 342 1 338 329 330 329 325 321 316 314 313 313 313 313 312 316 313 310 309 306 297 293 292 292 292 292 292 292 291
280 284 277 266 298 311 319 314 330 340 320 322 311 306 307 288 312 329 327 327 326 324 320 318 316 314 313 315 318 320 318 318 318 315 307 301 296 294 294 295 295 294 292 291
308 252 210 266 292 300 306 300 323 315 286 303 312 297 276 282 304 331 326 322 323 321 319 321 316 312 318 321 318 317 320 319 317 314 311 308 306 305 304 302 300 297 295 291
308 313 308 312 316 310 308 320 310 310 313 334 280 279 291 312 327 320 321 325 322 323 322 320 318 315 321 319 316 317 317 318 318 317 316 314 314 310 307 303 299 295 292 289
250 291 320 308 308 303 314 328 320 316 332 321 298 304 312 322 328 327 328 325 325 324 320 321 320 322 319 314 313 315 318 322 324 326 324 320 316 313 310 309 309 306 297 290
259 266 276 293 301 306 323 320 325 313 283 274 296 309 325 318 324 325 329 326 327 322 322 323 325 328 327 333 331 327 330 335 333 328 327 325 326 329 331 333 339 338 330 318
286 294 281 291 290 310 313 326 315 307 319 310 324 318 316 326 321 325 327 329 325 328 326 326 327 327 332 334 335 338 344 343 342 346 351 352 356 356 356 359 4 7 3 1
296 292 299 297 304 315 314 327 320 312 316 286 278 302 324 324 324 325 327 330 330 332 330 329 326 331 335 337 342 348 354 359 2 6 8 12 14 14 16 16 17 20 23 27
301 297 303 315 307 306 299 314 313 318 326 320 322 319 328 331 327 327 335 334 332 337 333 328 330 336 339 345 352 353 0 14 18 19 20 23 26 31 32 32 33 36 40 43
298 299 303 293 289 300 290 304 301 318 329 318 316 324 329 332 330 333 335 335 335 340 338 331 332 339 346 355 359 17 22 20 23 24 28 34 41 45 47 47 49 51 53 55
295 303 306 306 296 285 286 293 305 321 326 321 321 330 327 329 330 337 333 339 339 341 342 346 347 350 354 3 11 11 14 15 19 21 27 31 38 45 48 51 54 56 59 62
314 314 307 316 290 258 284 281 317 327 327 332 326 328 327 330 335 339 335 339 340 336 341 348 355 356 3 7 8 8 11 12 17 21 29 38 42 46 48 51 57 62 63 66
310 310 301 289 300 289 283 306 319 324 325 331 329 330 328 328 333 340 339 337 338 338 338 348 351 358 2 3 4 9 15 16 26 32 39 42 40 44 44 50 56 62 66 69
302 301 298 263 275 260 277 296 314 320 324 331 329 329 330 330 336 341 339 342 340 341 338 342 349 355 4 4 10 11 19 29 40 42 41 42 41 45 52 58 62 66 70 72
315 299 330 161 281 275 296 308 312 321 326 329 329 332 333 332 335 340 343 344 341 337 335 335 342 356 9 12 15 16 25 41 42 41 39 45 50 57 60 61 63 67 69 74
288 272 211 267 192 266 294 307 321 323 327 331 333 333 335 335 336 339 342 341 340 334 332 318 320 15 26 18 16 24 41 38 39 42 46 59 63 59 57 59 65 68 73 78
184 156 178 260 255 285 309 322 316 323 330 332 333 333 336 337 339 341 344 343 339 330 323 294 221 104 57 26 22 39 54 38 44 46 52 57 52 51 58 66 73 75 80 85
117 148 213 265 294 304 303 319 320 326 330 332 332 334 336 342 344 345 346 342 338 328 315 249 167 129 73 27 32 57 41 38 48 58 64 55 58 71 77 80 82 85 85 86
270 256 258 273 292 311 318 321 325 328 331 332 334 336 340 346 346 350 349 347 348 350 349 142 150 127 80 49 55 57 36 47 66 63 50 61 78 82 86 89 93 93 92 90
229 270 273 297 307 306 315 317 326 328 329 332 335 337 342 346 350 354 353 357 6 27 51 101 139 125 83 65 70 43 42 57 62 42 70 90 93 96 99 99 98 96 95 94
310 289 308 313 309 316 321 326 328 329 331 334 336 337 341 348 353 357 356 4 13 40 54 99 125 115 90 79 74 36 61 63 46 56 87 96 106 110 108 107 103 102 101 99
302 309 310 312 318 321 324 325 325 328 331 333 337 340 345 349 356 359 0 5 17 45 74 90 113 78 40 84 79 53 74 47 56 80 106 116 123 122 119 116 110 108 105 102